This is the latest recevied weather packets stored in our database for station/object K5NAN. If no packets are shown the sender has not sent any weather packets the latest 10 day(s).
| Time | Temp. | Humidity | Pressure | Rain* | Wind** | Luminosity | Snow |
|---|---|---|---|---|---|---|---|
| 1777410103 | 25° C | 87% | 1009.2 hPa | 0 mm | - | 16 W/m² | - |
| 1777409798 | 25° C | 87% | 1009.4 hPa | 0 mm | - | 15 W/m² | - |
| 1777409494 | 25° C | 87% | 1009.1 hPa | 0 mm | - | 16 W/m² | - |
| 1777409190 | 25° C | 87% | 1008.9 hPa | 0 mm | - | 28 W/m² | - |
| 1777408886 | 25° C | 87% | 1008.4 hPa | 0 mm | - | 23 W/m² | - |
| 1777408582 | 25° C | 87% | 1008.6 hPa | 0 mm | - | 25 W/m² | - |
| 1777408278 | 25° C | 86% | 1008.5 hPa | 0 mm | - | 46 W/m² | - |
| 1777407978 | 25° C | 86% | 1008.6 hPa | 0 mm | - | 40 W/m² | - |
| 1777407676 | 25° C | 86% | 1008.6 hPa | 0 mm | - | 45 W/m² | - |
| 1777407376 | 25° C | 86% | 1008.4 hPa | 0 mm | - | 39 W/m² | - |
| 1777407070 | 25.56° C | 85% | 1008.6 hPa | 0 mm | - | 66 W/m² | - |
| 1777406767 | 25.56° C | 85% | 1008.3 hPa | 0 mm | - | 78 W/m² | - |
| 1777406467 | 25.56° C | 85% | 1008.5 hPa | 0 mm | - | 77 W/m² | - |
| 1777406161 | 25.56° C | 84% | 1008.5 hPa | 0 mm | - | 129 W/m² | - |
| 1777405857 | 25.56° C | 84% | 1008.5 hPa | 0 mm | - | 169 W/m² | - |
| 1777405554 | 26.11° C | 84% | 1008.5 hPa | 0 mm | - | 200 W/m² | - |
| 1777405251 | 26.11° C | 83% | 1008.9 hPa | 0 mm | - | 343 W/m² | - |
| 1777404949 | 26.11° C | 83% | 1009.2 hPa | 0 mm | - | 266 W/m² | - |
| 1777404646 | 26.67° C | 82% | 1009.3 hPa | 0 mm | - | 476 W/m² | - |
| 1777404342 | 26.67° C | 83% | 1009.2 hPa | 0 mm | - | 627 W/m² | - |
| 1777404038 | 26.67° C | 84% | 1009.6 hPa | 0 mm | - | 545 W/m² | - |
| 1777403734 | 26.11° C | 84% | 1009.8 hPa | 0 mm | - | 553 W/m² | - |
| 1777403433 | 26.11° C | 85% | 1009.8 hPa | 0 mm | - | 380 W/m² | - |
| 1777403133 | 26.11° C | 84% | 1009.7 hPa | 0 mm | - | 457 W/m² | - |
| 1777402829 | 26.11° C | 85% | 1010.2 hPa | 0 mm | - | 431 W/m² | - |
* Rain latest hour (hover to see other rain measurements)
** Current wind speed in m/s (hover to see current wind gust speed)